Regional Weather Roundup
Issued by NWS

Home | Current Version | Previous Version | Text Only | Print | Product List | Glossary Off
Versions: 1 2 3 4 5 6 7 8 9 10 11 12 13 14 15 16 17 18 19 20 21 22 23 24 25 26 27 28 29 30 31 32 33 34 35 36 37 38 39 40 41 42 43 44 45 46 47 48 49 50

000
ASUS43 KMKX 011521
RWRWI

WISCONSIN REGIONAL WEATHER ROUNDUP
NATIONAL WEATHER SERVICE MILWAUKEE/SULLIVAN WI
900 AM CST SUN FEB 01 2015

NOTE: "FAIR" INDICATES FEW OR NO CLOUDS BELOW 12,000 FEET WITH NO
SIGNIFICANT WEATHER AND/OR OBSTRUCTIONS TO VISIBILITY.

WIZ001-002-006>008-014>016-023>028-011600-
NORTHWEST WISCONSIN

CITY           SKY/WX    TMP DP  RH WIND       PRES   REMARKS
SUPERIOR ARPT  PTSUNNY    8   3  80 NE12G17   30.39S WCI  -7
ASHLAND        LGT SNOW   9   4  80 N16G24    30.36R WCI  -8
HAYWARD        CLOUDY     9  -1  64 NE10      30.29R WCI  -5
SIREN          CLOUDY    10   1  66 NE12G17   30.31R WCI  -5
CUMBERLAND     CLOUDY     9   0  66 NE13      30.24F WCI  -7
RICE LAKE      CLOUDY     9   1  67 NE10G16   30.28S WCI  -5
CHETEK         CLOUDY     9   0  69 MISG      30.26S
LADYSMITH      CLOUDY     9   1  69 NE12      30.26S WCI  -6
EAU CLAIRE     CLOUDY    11   1  64 NE16G25   30.21F WCI  -6
MENOMONIE      CLOUDY    12   2  65 N16       30.23F WCI  -5
NEW RICHMOND   CLOUDY    10   2  68 NE16      30.25S WCI  -7
OSCEOLA        CLOUDY    12   2  63 NE10G22   30.30S WCI  -2
$$

WIZ003>005-009-010-017-018-011600-
NORTH CENTRAL WISCONSIN

CITY           SKY/WX    TMP DP  RH WIND       PRES   REMARKS
MANITOWISH WTR CLOUDY     4  -2  75 NE7       30.25R WCI  -8
ARBOR VITAE    CLOUDY     6   1  77 NE9       30.23R WCI  -8
WOODRUFF       CLOUDY     6   1  77 NE9       30.23R WCI  -8
RHINELANDER    CLOUDY     6  -2  69 NE10      30.21R WCI  -9
EAGLE RIVER    CLOUDY     5  -2  73 NE9       30.23R WCI  -9
LAND O LAKES   CLOUDY     5   1  81 NE6       30.25R WCI  -6
PHILLIPS       CLOUDY     5  -1  74 NE14      30.23S WCI -12
TOMAHAWK       CLOUDY     7   0  71 NE9G18    30.21F WCI  -6
MEDFORD        CLOUDY     8   1  73 NE14G21   30.17F WCI  -9
MERRILL        CLOUDY     9   2  73 NE13G22   30.20F WCI  -7
$$

WIZ029-030-035-036-043>047-011600-
CENTRAL WISCONSIN

CITY           SKY/WX    TMP DP  RH WIND       PRES   REMARKS
WAUSAU         CLOUDY    10   1  67 NE14G22   30.17F WCI  -6
MOSINEE        CLOUDY    10   3  72 NE14G23   30.17S WCI  -5
MARSHFIELD     CLOUDY    11   3  70 NE15      30.16F WCI  -5
STEVENS POINT  CLOUDY    10   4  77 NE12G21   30.18S HAZE    WCI  -5
WAUPACA        LGT SNOW  14   7  72 NE13G20   30.19F WCI   0
WAUTOMA        LGT SNOW  12   9  85 NE17G24   30.16F WCI  -5
WISC RAPIDS    LGT SNOW  11   5  77 NE10G20   30.18S VSB 1   WCI  -3
CAMP DOUGLAS   LGT SNOW  12  12 100 NE9       30.14S VSB 1   WCI   0
$$

WIZ011>013-019>022-031-037>040-048>050-011600-
NORTHEAST WISCONSIN

CITY           SKY/WX    TMP DP  RH WIND       PRES   REMARKS
ANTIGO         CLOUDY     8   2  78 NE14      30.18F WCI  -9
SHAWANO        CLOUDY    14   6  70 NE15G26   30.23F WCI  -2
OCONTO         CLOUDY    10   3  72 NE13G21   30.27R WCI  -5
STURGEON BAY   CLOUDY    10   5  79 NE16      30.25S WCI  -7
GREEN BAY      LGT SNOW  11   6  81 NE32G38   30.22R WCI -12
MANITOWOC      LGT SNOW  18  16  93 NE12G21   30.18S VSB 3/4 WCI   5
APPLETON       LGT SNOW  12   7  79 NE17G30   30.17S WCI  -5
CLINTONVILLE   CLOUDY    12   5  73 NE13G21   30.21F WCI  -3
OSHKOSH        LGT SNOW  13   8  81 NE22G31   30.16R VSB 3/4 WCI  -6
$$

WIZ032>034-041-042-053>061-011600-
SOUTHWEST WISCONSIN

CITY           SKY/WX    TMP DP  RH WIND       PRES   REMARKS
LA CROSSE      LGT SNOW  16  10  77 N9        30.14S WCI   4
SPARTA         LGT SNOW  14   9  82 NE10G21   30.14F WCI   1
VIROQUA        CLOUDY    13  10  88 NE20G25   30.04F VSB 3/4 WCI  -5
BOSCOBEL       SNOW      17  12  80 NE9G24    30.05F VSB 1/2 WCI   6
PRAIRIE DU CHI LGT SNOW  18  12  79 NE7G17    30.03F VSB 1   WCI   8
PLATTEVILLE    CLOUDY    18  15  89 N26G36    29.93F VSB 1/2 WCI   0
$$

WIZ056-057-062-063-064-067-068-011600-
SOUTH CENTRAL WISCONSIN

CITY           SKY/WX    TMP DP  RH WIND       PRES   REMARKS
REEDSBURG      LGT SNOW  14  10  85 NE13G21   30.09F WCI  -1
BARABOO/DELLS  LGT SNOW  13  10  85 NE16      30.07F VSB 3/4 WCI  -3
LONE ROCK      SNOW      17  11  77 NE16G23   30.06F VSB 1/2 WCI   2
MINERAL POINT  LGT SNOW  19  16  86 NE18G30   29.95F WCI   4
MADISON        SNOW      16  11  80 NE20      30.04F VSB 1/2 WCI  -1
MIDDLETON      CLOUDY    17  13  84 NE22G28   30.04F WCI   0
WATERTOWN      LGT SNOW  21  18  89 NE14G29   30.04F WCI   8
MONROE         LGT SNOW  19  18  93 NE21G28   29.94F WCI   3
JANESVILLE     CLOUDY    25  23  93 NE20G25   29.98F VSB 1   WCI  11
$$

WIZ051-052-058>065-066-070>072-011600-
SOUTHEAST WISCONSIN

CITY           SKY/WX    TMP DP  RH WIND       PRES   REMARKS
MILWAUKEE      SNOW      23  19  85 NE25G32   30.05F VSB 1/4 WCI   7
WAUKESHA       LGT SNOW  21  19  93 NE12G23   30.04F VSB 1   WCI   9
MILWAUKEE/TIMM SNOW      21  19  93 NE17G25   30.07S VSB 1/2 WCI   7
RACINE         SNOW      24  20  84 NE23G31   30.03F VSB 1/4 WCI   9
BURLINGTON     LGT SNOW  22  20  92 NE16G25   30.00F WCI   8
KENOSHA        SNOW      24  22  91 NE24G33   29.99F VSB 1/4 WCI   8
FOND DU LAC    LGT SNOW  15  11  83 NE21      30.13S FOG     WCI  -2
SHEBOYGAN      LGT SNOW  19  15  84 NE22G29   30.13S FOG     WCI   2
WEST BEND      LGT SNOW  21  18  86 NE14G29   30.08S WCI   8
JUNEAU         LGT SNOW  16  13  88 N16G22    30.07F WCI   0
$$

LSZ147-162-011600-
LAKE SUPERIOR

STATION/POSITION TIME  TEMP    WIND        PRES    WAVE
                       AIR SEA DIR/SP/G            HT/PER
                 (UTC) (F)     (DEG/KT/KT) (MB)    (FT/S)
DEVILS ISLAND    1500    9      30/ 18/ 20 1031.4R
PORT WING        1400   11      70/ 13/ 17 1028.8R
SAXON HARBOR     1400   10      CALM  /  4 1027.8S
$$

LMZ867-665-643>646-011600-
LAKE MICHIGAN

STATION/POSITION TIME  TEMP    WIND        PRES    WAVE
                       AIR SEA DIR/SP/G            HT/PER
                 (UTC) (F)     (DEG/KT/KT) (MB)    (FT/S)
NORTHPORT PIER   1430   11      40/ 18/ 22 1026.1R
SISTER BAY       1413    9      20/ 14/ 20   N/A
KEWAUNEE LAKESHO 1500   18      50/ 21/ 27 1022.1R
SHEBOYGAN LAKESH 1500   21      50/ 23/ 27 1021.7S
PORT WASHINGTON  1500   24      60/ 21     1020.0F
MILWAUKEE LAKESH 1500   24      50/ 27/ 30   N/A
KENOSHA   LAKESH 1500   26      50/ 27/ 32 1015.9S
$$

TC  - TEMPERATURE IN CELSIUS
VSB - VISIBILITY IN STATUTE MILES
WCI - WIND CHILL INDEX
HX  - HEAT INDEX



USA.gov is the U.S. government's official web portal to all federal, state and local government web resources and services.